owner,sensor,date,latitude,longitude,vertical_datum,direction_of_sea_water_velocity,sea_water_speed,upward_sea_water_velocity,qcFlag 
ADCP,ioos:station:wmo:42890:1,2015-11-01T00:12:00Z,27.6250,-90.4410,15.2,40.0,83.7,-99999.0,'1111122,1111122,1199999999' 
ADCP,ioos:station:wmo:42890:1,2015-11-01T00:32:00Z,27.6250,-90.4410,15.2,39.0,83.5,-9999.0,'11111222,11111222,99999999' 
ADCP,ioos:station:wmo:42890:1,2015-11-01T00:52:00Z,27.6250,-90.4410,15.2,41.0,89.9,-9999.0,'11111222,11111222,99999999' 
ADCP,ioos:station:wmo:42890:1,2015-11-01T01:12:00Z,27.6250,-90.4410,15.2,42.0,85.4,-99999.0,'1111122,1111122,1199999999' 
ADCP,ioos:station:wmo:42890:1,2015-11-01T01:32:00Z,27.6250,-90.4410,15.2,43.0,85.6,-9999.0,'11111222,11111222,99999999' 
ADCP,ioos:station:wmo:42890:1,2015-11-01T01:52:00Z,27.6250,-90.4410,15.2,43.0,85.3,-99999.0,'1111122,1111122,1199999999' 
ADCP,ioos:station:wmo:42890:1,2015-11-01T02:12:00Z,27.6250,-90.4410,15.2,43.0,78.7,-9999.0,'11111222,11111222,99999999' 
ADCP,ioos:station:wmo:42890:1,2015-11-01T02:32:00Z,27.6250,-90.4410,15.2,43.0,80.2,-9999.0,'11111222,11111222,99999999' 
ADCP,ioos:station:wmo:42890:1,2015-11-01T02:52:00Z,27.6250,-90.4410,15.2,42.0,79.4,-9999.0,'11111222,11111222,99999999' 
ADCP,ioos:station:wmo:42890:1,2015-11-01T03:12:00Z,27.6250,-90.4410,15.2,40.0,75.5,-99999.0,'1111122,1111122,1199999999' 
ADCP,ioos:station:wmo:42890:1,2015-11-01T03:32:00Z,27.6250,-90.4410,15.2,39.0,74.3,-9999.0,'11111222,11111222,99999999' 
ADCP,ioos:station:wmo:42890:1,2015-11-01T03:52:00Z,27.6250,-90.4410,15.2,40.0,74.1,-9999.0,'11111222,11111222,99999999' 
ADCP,ioos:station:wmo:42890:1,2015-11-01T04:12:00Z,27.6250,-90.4410,15.2,40.0,74.9,-99999.0,'1111122,1111122,1199999999' 
ADCP,ioos:station:wmo:42890:1,2015-11-01T04:32:00Z,27.6250,-90.4410,15.2,39.0,75.0,-9999.0,'11111222,11111222,99999999' 
ADCP,ioos:station:wmo:42890:1,2015-11-01T04:52:00Z,27.6250,-90.4410,15.2,39.0,74.6,-9999.0,'11111222,11111222,99999999' 
ADCP,ioos:station:wmo:42890:1,2015-11-01T07:12:00Z,27.6250,-90.4410,15.2,39.0,76.1,-99999.0,'1111122,1111122,1199999999' 
ADCP,ioos:station:wmo:42890:1,2015-11-01T07:32:00Z,27.6250,-90.4410,15.2,38.0,73.9,-9999.0,'11111222,11111222,99999999' 
ADCP,ioos:station:wmo:42890:1,2015-11-01T07:52:00Z,27.6250,-90.4410,15.2,41.0,74.5,-9999.0,'11111222,11111222,99999999' 
ADCP,ioos:station:wmo:42890:1,2015-11-01T08:12:00Z,27.6250,-90.4410,15.2,40.0,75.6,-99999.0,'1111122,1111122,1199999999' 
ADCP,ioos:station:wmo:42890:1,2015-11-01T08:32:00Z,27.6250,-90.4410,15.2,38.0,76.1,-9999.0,'11111222,11111222,99999999' 
ADCP,ioos:station:wmo:42890:1,2015-11-01T08:52:00Z,27.6250,-90.4410,15.2,35.0,73.2,-9999.0,'11111222,11111222,99999999' 
ADCP,ioos:station:wmo:42890:1,2015-11-01T09:12:00Z,27.6250,-90.4410,15.2,36.0,75.1,-99999.0,'1111122,1111122,1199999999' 
ADCP,ioos:station:wmo:42890:1,2015-11-01T09:32:00Z,27.6250,-90.4410,15.2,37.0,77.6,-9999.0,'11111222,11111222,99999999' 
ADCP,ioos:station:wmo:42890:1,2015-11-01T09:52:00Z,27.6250,-90.4410,15.2,36.0,80.2,-9999.0,'11111222,11111222,99999999' 
ADCP,ioos:station:wmo:42890:1,2015-11-01T10:12:00Z,27.6250,-90.4410,15.2,36.0,78.1,-99999.0,'1111122,1111122,1199999999' 
ADCP,ioos:station:wmo:42890:1,2015-11-01T10:32:00Z,27.6250,-90.4410,15.2,35.0,80.0,-9999.0,'11111222,11111222,99999999' 
ADCP,ioos:station:wmo:42890:1,2015-11-01T10:52:00Z,27.6250,-90.4410,15.2,36.0,82.3,-9999.0,'11111222,11111222,99999999' 
ADCP,ioos:station:wmo:42890:1,2015-11-01T11:12:00Z,27.6250,-90.4410,15.2,35.0,79.7,-99999.0,'1111122,1111122,1199999999' 
ADCP,ioos:station:wmo:42890:1,2015-11-01T11:32:00Z,27.6250,-90.4410,15.2,34.0,80.7,-9999.0,'11111222,11111222,99999999' 
ADCP,ioos:station:wmo:42890:1,2015-11-01T11:52:00Z,27.6250,-90.4410,15.2,33.0,81.9,-9999.0,'11111222,11111222,99999999' 
ADCP,ioos:station:wmo:42890:1,2015-11-01T12:12:00Z,27.6250,-90.4410,15.2,32.0,82.3,-99999.0,'1111122,1111122,1199999999' 
ADCP,ioos:station:wmo:42890:1,2015-11-01T12:32:00Z,27.6250,-90.4410,15.2,32.0,83.4,-9999.0,'11111222,11111222,99999999' 
ADCP,ioos:station:wmo:42890:1,2015-11-01T12:52:00Z,27.6250,-90.4410,15.2,33.0,82.1,-9999.0,'11111222,11111222,99999999' 
ADCP,ioos:station:wmo:42890:1,2015-11-01T13:12:00Z,27.6250,-90.4410,15.2,33.0,80.4,-99999.0,'1111122,1111122,1199999999' 
ADCP,ioos:station:wmo:42890:1,2015-11-01T13:32:00Z,27.6250,-90.4410,15.2,32.0,81.6,-9999.0,'11111222,11111222,99999999' 
ADCP,ioos:station:wmo:42890:1,2015-11-01T13:52:00Z,27.6250,-90.4410,15.2,28.0,85.0,-9999.0,'11111222,11111222,99999999' 
ADCP,ioos:station:wmo:42890:1,2015-11-01T14:12:00Z,27.6250,-90.4410,15.2,29.0,89.6,-99999.0,'1111122,1111122,1199999999' 
ADCP,ioos:station:wmo:42890:1,2015-11-01T14:32:00Z,27.6250,-90.4410,15.2,36.0,85.3,-9999.0,'11111222,11111222,99999999' 
ADCP,ioos:station:wmo:42890:1,2015-11-01T14:52:00Z,27.6250,-90.4410,15.2,41.0,65.7,-9999.0,'11111222,11111222,99999999' 
ADCP,ioos:station:wmo:42890:1,2015-11-01T15:12:00Z,27.6250,-90.4410,15.2,44.0,62.0,-99999.0,'1111122,1111122,1199999999' 
ADCP,ioos:station:wmo:42890:1,2015-11-01T15:32:00Z,27.6250,-90.4410,15.2,45.0,69.7,-9999.0,'11111222,11111222,99999999' 
ADCP,ioos:station:wmo:42890:1,2015-11-01T15:52:00Z,27.6250,-90.4410,15.2,45.0,67.5,-9999.0,'11111222,11111222,99999999' 
ADCP,ioos:station:wmo:42890:1,2015-11-01T16:12:00Z,27.6250,-90.4410,15.2,47.0,69.2,-99999.0,'1111122,1111122,1199999999' 
ADCP,ioos:station:wmo:42890:1,2015-11-01T16:32:00Z,27.6250,-90.4410,15.2,50.0,70.7,-9999.0,'11111222,11111222,99999999' 
ADCP,ioos:station:wmo:42890:1,2015-11-01T16:52:00Z,27.6250,-90.4410,15.2,52.0,67.5,-9999.0,'11111222,11111222,99999999' 
ADCP,ioos:station:wmo:42890:1,2015-11-01T17:12:00Z,27.6250,-90.4410,15.2,56.0,67.3,-99999.0,'1111122,1111122,1199999999' 
ADCP,ioos:station:wmo:42890:1,2015-11-01T17:32:00Z,27.6250,-90.4410,15.2,56.0,65.9,-9999.0,'11111222,11111222,99999999' 
ADCP,ioos:station:wmo:42890:1,2015-11-01T17:52:00Z,27.6250,-90.4410,15.2,53.0,65.4,-9999.0,'11111222,11111222,99999999' 
ADCP,ioos:station:wmo:42890:1,2015-11-01T18:12:00Z,27.6250,-90.4410,15.2,52.0,62.8,-99999.0,'1111122,1111122,1199999999' 
ADCP,ioos:station:wmo:42890:1,2015-11-01T18:32:00Z,27.6250,-90.4410,15.2,45.0,65.8,-9999.0,'11111222,11111222,99999999' 
ADCP,ioos:station:wmo:42890:1,2015-11-01T18:52:00Z,27.6250,-90.4410,15.2,52.0,68.1,-9999.0,'11111222,11111222,99999999' 
ADCP,ioos:station:wmo:42890:1,2015-11-01T19:12:00Z,27.6250,-90.4410,15.2,54.0,52.9,-99999.0,'1111122,1111122,1199999999' 
ADCP,ioos:station:wmo:42890:1,2015-11-01T19:32:00Z,27.6250,-90.4410,15.2,48.0,53.0,-9999.0,'11111222,11111222,99999999' 
ADCP,ioos:station:wmo:42890:1,2015-11-01T19:52:00Z,27.6250,-90.4410,15.2,45.0,55.3,-99999.0,'1111122,1111122,1199999999' 
ADCP,ioos:station:wmo:42890:1,2015-11-01T20:12:00Z,27.6250,-90.4410,15.2,44.0,47.9,-9999.0,'11111222,11111222,99999999' 
ADCP,ioos:station:wmo:42890:1,2015-11-01T20:32:00Z,27.6250,-90.4410,15.2,46.0,54.2,-9999.0,'11111222,11111222,99999999' 
ADCP,ioos:station:wmo:42890:1,2015-11-01T20:52:00Z,27.6250,-90.4410,15.2,41.0,52.3,-9999.0,'11111222,11111222,99999999' 
ADCP,ioos:station:wmo:42890:1,2015-11-01T21:12:00Z,27.6250,-90.4410,15.2,39.0,41.2,-99999.0,'1111122,1111122,1199999999' 
ADCP,ioos:station:wmo:42890:1,2015-11-01T21:32:00Z,27.6250,-90.4410,15.2,37.0,40.5,-9999.0,'11111222,11111222,99999999' 
ADCP,ioos:station:wmo:42890:1,2015-11-01T21:52:00Z,27.6250,-90.4410,15.2,36.0,45.4,-9999.0,'11111222,11111222,99999999' 
ADCP,ioos:station:wmo:42890:1,2015-11-01T22:12:00Z,27.6250,-90.4410,15.2,23.0,42.9,-99999.0,'1111122,1111122,1199999999' 
ADCP,ioos:station:wmo:42890:1,2015-11-01T22:32:00Z,27.6250,-90.4410,15.2,26.0,37.6,-9999.0,'11111222,11111222,99999999' 
ADCP,ioos:station:wmo:42890:1,2015-11-01T22:52:00Z,27.6250,-90.4410,15.2,28.0,37.8,-9999.0,'11111222,11111222,99999999' 
ADCP,ioos:station:wmo:42890:1,2015-11-01T23:12:00Z,27.6250,-90.4410,15.2,23.0,43.7,-99999.0,'1111122,1111122,1199999999' 
ADCP,ioos:station:wmo:42890:1,2015-11-01T23:32:00Z,27.6250,-90.4410,15.2,13.0,31.1,-9999.0,'11111222,11111222,99999999' 
ADCP,ioos:station:wmo:42890:1,2015-11-01T23:52:00Z,27.6250,-90.4410,15.2,18.0,34.7,-9999.0,'11111222,11111222,99999999' 
ADCP,ioos:station:wmo:42890:1,2015-11-02T00:12:00Z,27.6250,-90.4410,15.2,27.0,40.6,-99999.0,'1111122,1111122,1199999999' 
ADCP,ioos:station:wmo:42890:1,2015-11-02T00:32:00Z,27.6250,-90.4410,15.2,27.0,47.8,-9999.0,'11111222,11111222,99999999' 
ADCP,ioos:station:wmo:42890:1,2015-11-02T00:52:00Z,27.6250,-90.4410,15.2,39.0,66.0,-9999.0,'11111222,11111222,99999999' 
ADCP,ioos:station:wmo:42890:1,2015-11-02T01:12:00Z,27.6250,-90.4410,15.2,37.0,53.0,-99999.0,'1111122,1111122,1199999999' 
ADCP,ioos:station:wmo:42890:1,2015-11-02T01:32:00Z,27.6250,-90.4410,15.2,30.0,52.9,-9999.0,'11111222,11111222,99999999' 
ADCP,ioos:station:wmo:42890:1,2015-11-02T01:52:00Z,27.6250,-90.4410,15.2,33.0,59.0,-99999.0,'1111122,1111122,1199999999' 
ADCP,ioos:station:wmo:42890:1,2015-11-02T02:12:00Z,27.6250,-90.4410,15.2,35.0,66.1,-9999.0,'11111222,11111222,99999999' 
ADCP,ioos:station:wmo:42890:1,2015-11-02T02:32:00Z,27.6250,-90.4410,15.2,42.0,65.4,-9999.0,'11111222,11111222,99999999' 
ADCP,ioos:station:wmo:42890:1,2015-11-02T02:52:00Z,27.6250,-90.4410,15.2,36.0,60.4,-9999.0,'11111222,11111222,99999999' 
ADCP,ioos:station:wmo:42890:1,2015-11-02T03:12:00Z,27.6250,-90.4410,15.2,38.0,66.2,-99999.0,'1111122,1111122,1199999999' 
ADCP,ioos:station:wmo:42890:1,2015-11-02T03:32:00Z,27.6250,-90.4410,15.2,38.0,61.4,-9999.0,'11111222,11111222,99999999' 
ADCP,ioos:station:wmo:42890:1,2015-11-02T03:52:00Z,27.6250,-90.4410,15.2,40.0,78.5,-9999.0,'11111222,11111222,99999999' 
ADCP,ioos:station:wmo:42890:1,2015-11-02T04:12:00Z,27.6250,-90.4410,15.2,36.0,73.6,-99999.0,'1111122,1111122,1199999999' 
ADCP,ioos:station:wmo:42890:1,2015-11-02T04:32:00Z,27.6250,-90.4410,15.2,39.0,76.2,-9999.0,'11111222,11111222,99999999' 
ADCP,ioos:station:wmo:42890:1,2015-11-02T04:52:00Z,27.6250,-90.4410,15.2,39.0,76.9,-9999.0,'11111222,11111222,99999999' 
ADCP,ioos:station:wmo:42890:1,2015-11-02T05:12:00Z,27.6250,-90.4410,15.2,31.0,74.7,-99999.0,'1111122,1111122,1199999999' 
ADCP,ioos:station:wmo:42890:1,2015-11-02T05:32:00Z,27.6250,-90.4410,15.2,35.0,77.1,-9999.0,'11111222,11111222,99999999' 
ADCP,ioos:station:wmo:42890:1,2015-11-02T05:52:00Z,27.6250,-90.4410,15.2,40.0,76.8,-9999.0,'11111222,11111222,99999999' 
ADCP,ioos:station:wmo:42890:1,2015-11-02T06:12:00Z,27.6250,-90.4410,15.2,41.0,74.0,-99999.0,'1111122,1111122,1199999999' 
ADCP,ioos:station:wmo:42890:1,2015-11-02T06:32:00Z,27.6250,-90.4410,15.2,47.0,64.8,-9999.0,'11111222,11111222,99999999' 
ADCP,ioos:station:wmo:42890:1,2015-11-02T06:52:00Z,27.6250,-90.4410,15.2,47.0,62.8,-9999.0,'11111222,11111222,99999999' 
ADCP,ioos:station:wmo:42890:1,2015-11-02T07:12:00Z,27.6250,-90.4410,15.2,42.0,61.4,-99999.0,'1111122,1111122,1199999999' 
ADCP,ioos:station:wmo:42890:1,2015-11-02T07:32:00Z,27.6250,-90.4410,15.2,42.0,59.2,-9999.0,'11111222,11111222,99999999' 
ADCP,ioos:station:wmo:42890:1,2015-11-02T07:52:00Z,27.6250,-90.4410,15.2,48.0,63.2,-9999.0,'11111222,11111222,99999999' 
ADCP,ioos:station:wmo:42890:1,2015-11-02T08:12:00Z,27.6250,-90.4410,15.2,52.0,67.7,-99999.0,'1111122,1111122,1199999999' 
ADCP,ioos:station:wmo:42890:1,2015-11-02T08:32:00Z,27.6250,-90.4410,15.2,55.0,68.0,-9999.0,'11111222,11111222,99999999' 
ADCP,ioos:station:wmo:42890:1,2015-11-02T08:52:00Z,27.6250,-90.4410,15.2,55.0,70.6,-9999.0,'11111222,11111222,99999999' 
ADCP,ioos:station:wmo:42890:1,2015-11-02T09:12:00Z,27.6250,-90.4410,15.2,57.0,72.5,-99999.0,'1111122,1111122,1199999999' 
ADCP,ioos:station:wmo:42890:1,2015-11-02T09:32:00Z,27.6250,-90.4410,15.2,58.0,73.3,-9999.0,'11111222,11111222,99999999' 
ADCP,ioos:station:wmo:42890:1,2015-11-02T09:52:00Z,27.6250,-90.4410,15.2,58.0,72.5,-9999.0,'11111222,11111222,99999999' 
ADCP,ioos:station:wmo:42890:1,2015-11-02T10:12:00Z,27.6250,-90.4410,15.2,58.0,69.3,-99999.0,'1111122,1111122,1199999999' 
ADCP,ioos:station:wmo:42890:1,2015-11-02T10:32:00Z,27.6250,-90.4410,15.2,60.0,71.0,-9999.0,'11111222,11111222,99999999' 
ADCP,ioos:station:wmo:42890:1,2015-11-02T10:52:00Z,27.6250,-90.4410,15.2,61.0,70.0,-9999.0,'11111222,11111222,99999999' 
ADCP,ioos:station:wmo:42890:1,2015-11-02T11:12:00Z,27.6250,-90.4410,15.2,61.0,69.3,-99999.0,'1111122,1111122,1199999999' 
ADCP,ioos:station:wmo:42890:1,2015-11-02T11:32:00Z,27.6250,-90.4410,15.2,61.0,67.6,-9999.0,'11111222,11111222,99999999' 
ADCP,ioos:station:wmo:42890:1,2015-11-02T11:52:00Z,27.6250,-90.4410,15.2,61.0,68.9,-9999.0,'11111222,11111222,99999999' 
ADCP,ioos:station:wmo:42890:1,2015-11-02T12:12:00Z,27.6250,-90.4410,15.2,60.0,68.5,-99999.0,'1111122,1111122,1199999999' 
ADCP,ioos:station:wmo:42890:1,2015-11-02T12:32:00Z,27.6250,-90.4410,15.2,60.0,68.6,-9999.0,'11111222,11111222,99999999' 
ADCP,ioos:station:wmo:42890:1,2015-11-02T12:52:00Z,27.6250,-90.4410,15.2,59.0,68.1,-9999.0,'11111222,11111222,99999999' 
ADCP,ioos:station:wmo:42890:1,2015-11-02T13:12:00Z,27.6250,-90.4410,15.2,58.0,64.9,-99999.0,'1111122,1111122,1199999999' 
ADCP,ioos:station:wmo:42890:1,2015-11-02T13:32:00Z,27.6250,-90.4410,15.2,60.0,60.4,-9999.0,'11111222,11111222,99999999' 
ADCP,ioos:station:wmo:42890:1,2015-11-02T13:52:00Z,27.6250,-90.4410,15.2,62.0,59.6,-9999.0,'11111222,11111222,99999999' 
ADCP,ioos:station:wmo:42890:1,2015-11-02T14:12:00Z,27.6250,-90.4410,15.2,63.0,62.8,-99999.0,'1111122,1111122,1199999999' 
ADCP,ioos:station:wmo:42890:1,2015-11-02T14:32:00Z,27.6250,-90.4410,15.2,62.0,61.1,-9999.0,'11111222,11111222,99999999' 
ADCP,ioos:station:wmo:42890:1,2015-11-02T14:52:00Z,27.6250,-90.4410,15.2,63.0,58.0,-9999.0,'11111222,11111222,99999999' 
ADCP,ioos:station:wmo:42890:1,2015-11-02T15:12:00Z,27.6250,-90.4410,15.2,65.0,59.7,-99999.0,'1111122,1111122,1199999999' 
ADCP,ioos:station:wmo:42890:1,2015-11-02T15:32:00Z,27.6250,-90.4410,15.2,65.0,58.6,-9999.0,'11111222,11111222,99999999' 
ADCP,ioos:station:wmo:42890:1,2015-11-02T15:52:00Z,27.6250,-90.4410,15.2,63.0,59.9,-9999.0,'11111222,11111222,99999999' 
ADCP,ioos:station:wmo:42890:1,2015-11-02T16:12:00Z,27.6250,-90.4410,15.2,65.0,55.7,-99999.0,'1111122,1111122,1199999999' 
ADCP,ioos:station:wmo:42890:1,2015-11-02T16:32:00Z,27.6250,-90.4410,15.2,61.0,56.2,-99999.0,'1111122,1111122,1199999999' 
ADCP,ioos:station:wmo:42890:1,2015-11-02T16:52:00Z,27.6250,-90.4410,15.2,63.0,53.9,-9999.0,'11111222,11111222,99999999' 
ADCP,ioos:station:wmo:42890:1,2015-11-02T17:12:00Z,27.6250,-90.4410,15.2,62.0,54.0,-9999.0,'11111222,11111222,99999999' 
ADCP,ioos:station:wmo:42890:1,2015-11-02T17:32:00Z,27.6250,-90.4410,15.2,65.0,57.1,-9999.0,'11111222,11111222,99999999' 
ADCP,ioos:station:wmo:42890:1,2015-11-02T17:52:00Z,27.6250,-90.4410,15.2,62.0,54.0,-9999.0,'11111222,11111222,99999999' 
ADCP,ioos:station:wmo:42890:1,2015-11-02T18:12:00Z,27.6250,-90.4410,15.2,61.0,55.0,-99999.0,'1111122,1111122,1199999999' 
ADCP,ioos:station:wmo:42890:1,2015-11-02T18:32:00Z,27.6250,-90.4410,15.2,60.0,55.8,-9999.0,'11111222,11111222,99999999' 
ADCP,ioos:station:wmo:42890:1,2015-11-02T18:52:00Z,27.6250,-90.4410,15.2,57.0,53.4,-9999.0,'11111222,11111222,99999999' 
ADCP,ioos:station:wmo:42890:1,2015-11-02T19:12:00Z,27.6250,-90.4410,15.2,57.0,51.4,-99999.0,'1111122,1111122,1199999999' 
ADCP,ioos:station:wmo:42890:1,2015-11-02T19:32:00Z,27.6250,-90.4410,15.2,61.0,49.3,-9999.0,'11111222,11111222,99999999' 
ADCP,ioos:station:wmo:42890:1,2015-11-02T19:52:00Z,27.6250,-90.4410,15.2,58.0,43.2,-9999.0,'11111222,11111222,99999999' 
ADCP,ioos:station:wmo:42890:1,2015-11-02T20:12:00Z,27.6250,-90.4410,15.2,61.0,42.7,-99999.0,'1111122,1111122,1199999999' 
ADCP,ioos:station:wmo:42890:1,2015-11-02T20:32:00Z,27.6250,-90.4410,15.2,63.0,41.1,-9999.0,'11111222,11111222,99999999' 
ADCP,ioos:station:wmo:42890:1,2015-11-02T20:52:00Z,27.6250,-90.4410,15.2,61.0,39.3,-9999.0,'11111222,11111222,99999999' 
ADCP,ioos:station:wmo:42890:1,2015-11-02T21:12:00Z,27.6250,-90.4410,15.2,61.0,39.4,-99999.0,'1111122,1111122,1199999999' 
ADCP,ioos:station:wmo:42890:1,2015-11-02T21:32:00Z,27.6250,-90.4410,15.2,57.0,40.1,-9999.0,'11111222,11111222,99999999' 
ADCP,ioos:station:wmo:42890:1,2015-11-02T21:52:00Z,27.6250,-90.4410,15.2,53.0,41.0,-9999.0,'11111222,11111222,99999999' 
ADCP,ioos:station:wmo:42890:1,2015-11-02T22:12:00Z,27.6250,-90.4410,15.2,51.0,41.2,-9999.0,'11111222,11111222,99999999' 
ADCP,ioos:station:wmo:42890:1,2015-11-02T22:32:00Z,27.6250,-90.4410,15.2,48.0,39.8,-9999.0,'11111222,11111222,99999999' 
ADCP,ioos:station:wmo:42890:1,2015-11-02T22:52:00Z,27.6250,-90.4410,15.2,42.0,37.2,-9999.0,'11111222,11111222,99999999' 
ADCP,ioos:station:wmo:42890:1,2015-11-02T23:12:00Z,27.6250,-90.4410,15.2,37.0,34.4,-99999.0,'1111122,1111122,1199999999' 
ADCP,ioos:station:wmo:42890:1,2015-11-02T23:32:00Z,27.6250,-90.4410,15.2,37.0,31.6,-9999.0,'11111222,11111222,99999999' 
ADCP,ioos:station:wmo:42890:1,2015-11-02T23:52:00Z,27.6250,-90.4410,15.2,41.0,33.7,-9999.0,'11111222,11111222,99999999' 
ADCP,ioos:station:wmo:42890:1,2015-11-03T00:12:00Z,27.6250,-90.4410,15.2,30.0,27.6,-99999.0,'1111122,1111122,1199999999' 
ADCP,ioos:station:wmo:42890:1,2015-11-03T00:32:00Z,27.6250,-90.4410,15.2,30.0,34.5,-9999.0,'11111222,11111222,99999999' 
ADCP,ioos:station:wmo:42890:1,2015-11-03T00:52:00Z,27.6250,-90.4410,15.2,11.0,31.4,-9999.0,'11111222,11111222,99999999' 
ADCP,ioos:station:wmo:42890:1,2015-11-03T01:12:00Z,27.6250,-90.4410,15.2,13.0,38.8,-99999.0,'1111122,1111122,1199999999' 
ADCP,ioos:station:wmo:42890:1,2015-11-03T01:32:00Z,27.6250,-90.4410,15.2,19.0,41.7,-9999.0,'11111222,11111222,99999999' 
ADCP,ioos:station:wmo:42890:1,2015-11-03T01:52:00Z,27.6250,-90.4410,15.2,17.0,43.5,-99999.0,'1111122,1111122,1199999999' 
ADCP,ioos:station:wmo:42890:1,2015-11-03T02:12:00Z,27.6250,-90.4410,15.2,15.0,44.4,-9999.0,'11111222,11111222,99999999' 
ADCP,ioos:station:wmo:42890:1,2015-11-03T02:32:00Z,27.6250,-90.4410,15.2,16.0,47.9,-9999.0,'11111222,11111222,99999999' 
ADCP,ioos:station:wmo:42890:1,2015-11-03T02:52:00Z,27.6250,-90.4410,15.2,17.0,47.6,-9999.0,'11111222,11111222,99999999' 
ADCP,ioos:station:wmo:42890:1,2015-11-03T03:12:00Z,27.6250,-90.4410,15.2,15.0,50.1,-99999.0,'1111122,1111122,1199999999' 
ADCP,ioos:station:wmo:42890:1,2015-11-03T03:32:00Z,27.6250,-90.4410,15.2,19.0,50.7,-9999.0,'11111222,11111222,99999999' 
ADCP,ioos:station:wmo:42890:1,2015-11-03T03:52:00Z,27.6250,-90.4410,15.2,15.0,50.9,-9999.0,'11111222,11111222,99999999' 
ADCP,ioos:station:wmo:42890:1,2015-11-03T04:12:00Z,27.6250,-90.4410,15.2,17.0,51.0,-99999.0,'1111122,1111122,1199999999' 
ADCP,ioos:station:wmo:42890:1,2015-11-03T04:32:00Z,27.6250,-90.4410,15.2,20.0,51.6,-9999.0,'11111222,11111222,99999999' 
ADCP,ioos:station:wmo:42890:1,2015-11-03T04:52:00Z,27.6250,-90.4410,15.2,14.0,48.2,-9999.0,'11111222,11111222,99999999' 
ADCP,ioos:station:wmo:42890:1,2015-11-03T05:12:00Z,27.6250,-90.4410,15.2,19.0,52.8,-99999.0,'1111122,1111122,1199999999' 
ADCP,ioos:station:wmo:42890:1,2015-11-03T05:32:00Z,27.6250,-90.4410,15.2,22.0,56.2,-9999.0,'11111222,11111222,99999999' 
ADCP,ioos:station:wmo:42890:1,2015-11-03T05:52:00Z,27.6250,-90.4410,15.2,24.0,54.7,-9999.0,'11111222,11111222,99999999' 
ADCP,ioos:station:wmo:42890:1,2015-11-03T06:12:00Z,27.6250,-90.4410,15.2,18.0,54.1,-99999.0,'1111122,1111122,1199999999' 
ADCP,ioos:station:wmo:42890:1,2015-11-03T06:32:00Z,27.6250,-90.4410,15.2,18.0,49.7,-9999.0,'11111222,11111222,99999999' 
ADCP,ioos:station:wmo:42890:1,2015-11-03T06:52:00Z,27.6250,-90.4410,15.2,22.0,50.5,-9999.0,'11111222,11111222,99999999' 
ADCP,ioos:station:wmo:42890:1,2015-11-03T07:12:00Z,27.6250,-90.4410,15.2,18.0,48.3,-99999.0,'1111122,1111122,1199999999' 
ADCP,ioos:station:wmo:42890:1,2015-11-03T07:32:00Z,27.6250,-90.4410,15.2,19.0,51.9,-9999.0,'11111222,11111222,99999999' 
ADCP,ioos:station:wmo:42890:1,2015-11-03T07:52:00Z,27.6250,-90.4410,15.2,7.0,41.5,-9999.0,'11111222,11111222,99999999' 
ADCP,ioos:station:wmo:42890:1,2015-11-03T08:12:00Z,27.6250,-90.4410,15.2,18.0,50.0,-99999.0,'1111122,1111122,1199999999' 
ADCP,ioos:station:wmo:42890:1,2015-11-03T08:32:00Z,27.6250,-90.4410,15.2,17.0,49.3,-9999.0,'11111222,11111222,99999999' 
ADCP,ioos:station:wmo:42890:1,2015-11-03T08:52:00Z,27.6250,-90.4410,15.2,18.0,50.2,-9999.0,'11111222,11111222,99999999' 
ADCP,ioos:station:wmo:42890:1,2015-11-03T09:12:00Z,27.6250,-90.4410,15.2,8.0,47.1,-99999.0,'1111122,1111122,1199999999' 
ADCP,ioos:station:wmo:42890:1,2015-11-03T09:32:00Z,27.6250,-90.4410,15.2,21.0,49.6,-9999.0,'11111222,11111222,99999999' 
ADCP,ioos:station:wmo:42890:1,2015-11-03T09:52:00Z,27.6250,-90.4410,15.2,11.0,48.5,-9999.0,'11111222,11111222,99999999' 
ADCP,ioos:station:wmo:42890:1,2015-11-03T10:12:00Z,27.6250,-90.4410,15.2,9.0,45.7,-99999.0,'1111122,1111122,1199999999' 
ADCP,ioos:station:wmo:42890:1,2015-11-03T10:32:00Z,27.6250,-90.4410,15.2,353.0,47.5,-9999.0,'11111222,11111222,99999999' 
ADCP,ioos:station:wmo:42890:1,2015-11-03T10:52:00Z,27.6250,-90.4410,15.2,12.0,52.4,-9999.0,'11111222,11111222,99999999' 
ADCP,ioos:station:wmo:42890:1,2015-11-03T11:12:00Z,27.6250,-90.4410,15.2,352.0,44.1,-99999.0,'1111122,1111122,1199999999' 
ADCP,ioos:station:wmo:42890:1,2015-11-03T11:32:00Z,27.6250,-90.4410,15.2,354.0,45.9,-9999.0,'11111222,11111222,99999999' 
ADCP,ioos:station:wmo:42890:1,2015-11-03T11:52:00Z,27.6250,-90.4410,15.2,355.0,43.7,-9999.0,'11111222,11111222,99999999' 
ADCP,ioos:station:wmo:42890:1,2015-11-03T12:12:00Z,27.6250,-90.4410,15.2,337.0,42.7,-99999.0,'1111122,1111122,1199999999' 
ADCP,ioos:station:wmo:42890:1,2015-11-03T12:32:00Z,27.6250,-90.4410,15.2,314.0,50.3,-9999.0,'11111222,11111222,99999999' 
ADCP,ioos:station:wmo:42890:1,2015-11-03T12:52:00Z,27.6250,-90.4410,15.2,11.0,51.7,-9999.0,'11111222,11111222,99999999' 
ADCP,ioos:station:wmo:42890:1,2015-11-03T13:12:00Z,27.6250,-90.4410,15.2,8.0,49.5,-99999.0,'1111122,1111122,1199999999' 
ADCP,ioos:station:wmo:42890:1,2015-11-03T13:32:00Z,27.6250,-90.4410,15.2,14.0,55.6,-9999.0,'11111222,11111222,99999999' 
ADCP,ioos:station:wmo:42890:1,2015-11-03T13:52:00Z,27.6250,-90.4410,15.2,4.0,47.5,-9999.0,'11111222,11111222,99999999' 
ADCP,ioos:station:wmo:42890:1,2015-11-03T14:12:00Z,27.6250,-90.4410,15.2,10.0,53.6,-99999.0,'1111122,1111122,1199999999' 
ADCP,ioos:station:wmo:42890:1,2015-11-03T14:32:00Z,27.6250,-90.4410,15.2,16.0,59.1,-9999.0,'11111222,11111222,99999999' 
ADCP,ioos:station:wmo:42890:1,2015-11-03T14:52:00Z,27.6250,-90.4410,15.2,11.0,47.4,-9999.0,'11111222,11111222,99999999' 
ADCP,ioos:station:wmo:42890:1,2015-11-03T15:12:00Z,27.6250,-90.4410,15.2,36.0,49.0,-99999.0,'1111122,1111122,1199999999' 
ADCP,ioos:station:wmo:42890:1,2015-11-03T15:32:00Z,27.6250,-90.4410,15.2,45.0,61.2,-9999.0,'11111222,11111222,99999999' 
ADCP,ioos:station:wmo:42890:1,2015-11-03T15:52:00Z,27.6250,-90.4410,15.2,40.0,51.6,-9999.0,'11111222,11111222,99999999' 
ADCP,ioos:station:wmo:42890:1,2015-11-03T16:12:00Z,27.6250,-90.4410,15.2,34.0,66.2,-99999.0,'1111122,1111122,1199999999' 
ADCP,ioos:station:wmo:42890:1,2015-11-03T16:32:00Z,27.6250,-90.4410,15.2,9.0,35.4,-9999.0,'11111222,11111222,99999999' 
ADCP,ioos:station:wmo:42890:1,2015-11-03T16:52:00Z,27.6250,-90.4410,15.2,39.0,42.1,-9999.0,'11111222,11111222,99999999' 
ADCP,ioos:station:wmo:42890:1,2015-11-03T17:12:00Z,27.6250,-90.4410,15.2,15.0,34.8,-99999.0,'1111122,1111122,1199999999' 
ADCP,ioos:station:wmo:42890:1,2015-11-03T17:32:00Z,27.6250,-90.4410,15.2,31.0,44.2,-9999.0,'11111222,11111222,99999999' 
ADCP,ioos:station:wmo:42890:1,2015-11-03T17:52:00Z,27.6250,-90.4410,15.2,29.0,42.7,-9999.0,'11111222,11111222,99999999' 
ADCP,ioos:station:wmo:42890:1,2015-11-03T18:12:00Z,27.6250,-90.4410,15.2,15.0,33.0,-99999.0,'1111122,1111122,1199999999' 
ADCP,ioos:station:wmo:42890:1,2015-11-03T18:32:00Z,27.6250,-90.4410,15.2,34.0,51.4,-9999.0,'11111222,11111222,99999999' 
ADCP,ioos:station:wmo:42890:1,2015-11-03T18:52:00Z,27.6250,-90.4410,15.2,24.0,40.0,-9999.0,'11111222,11111222,99999999' 
ADCP,ioos:station:wmo:42890:1,2015-11-03T19:12:00Z,27.6250,-90.4410,15.2,26.0,42.4,-99999.0,'1111122,1111122,1199999999' 